Simultaneous Nadir Overpasses (SNOs) Predictions

Prediction of SNOs between LANDSAT-8 and METOP-A Satellite Orbit:

Table of predicted SNOs for the next 14.0 days since TLE Epoch: 8/30/2014
Index Date (LANDSAT-8) Time (LANDSAT-8) Lat,Lon (LANDSAT-8) SZA (LANDSAT-8 ) Date (METOP-A) Time (METOP-A) Lat,Lon (METOP-A) SZA (METOP-A ) Distance(km) Time Diff (sec)
1 09/01/2014 00:31:16 81.10,-148.14 74.79 09/01/2014 00:30:30 81.10,-148.23 74.76 1.68 46
2 09/01/2014 01:20:42 -81.13, 19.83 105.15 09/01/2014 01:21:09 -81.12, 19.85 105.14 0.50 27
3 09/03/2014 20:05:34 81.11, -81.68 75.84 09/03/2014 20:04:53 81.10, -81.66 75.82 0.56 41
4 09/03/2014 20:55:00 -81.13, 86.32 104.10 09/03/2014 20:55:32 -81.13, 86.41 104.08 1.64 32
5 09/06/2014 15:39:53 81.09, -15.43 76.88 09/06/2014 15:39:16 81.09, -15.51 76.85 1.24 37
6 09/06/2014 16:29:19 -81.12, 152.59 103.06 09/06/2014 16:29:55 -81.12, 152.57 103.05 0.39 36
7 09/09/2014 11:14:14 81.09, 50.96 77.95 09/09/2014 11:13:39 81.10, 51.00 77.94 0.67 35
8 09/09/2014 12:03:40 -81.12,-140.99 101.98 09/09/2014 12:04:18 -81.12,-140.93 101.96 1.02 38
9 09/12/2014 06:48:36 81.10, 117.51 79.06 09/12/2014 06:48:02 81.10, 117.47 79.04 0.83 34




NCC Satellite Simultaneous Nadir Overpasses (SNOs) Prediction Service
